Regional Weather Roundup
Issued by NWS

Home | Current Version | Previous Version | Text Only | Print | Product List | Glossary Off
Versions: 1 2 3 4 5 6 7 8 9 10 11 12 13 14 15 16 17 18 19 20 21 22 23 24 25 26 27 28 29 30 31 32 33 34 35 36 37 38 39 40 41 42 43 44 45 46 47 48 49 50

000
ASUS43 KMKX 191859
RWRWI

WISCONSIN REGIONAL WEATHER ROUNDUP
NATIONAL WEATHER SERVICE MILWAUKEE/SULLIVAN WI
100 PM CST FRI JAN 19 2018

NOTE: "FAIR" INDICATES FEW OR NO CLOUDS BELOW 12,000 FEET WITH NO
SIGNIFICANT WEATHER AND/OR OBSTRUCTIONS TO VISIBILITY.

WIZ001-002-006>008-014>016-023>028-192000-
NORTHWEST WISCONSIN

CITY           SKY/WX    TMP DP  RH WIND       PRES   REMARKS
SUPERIOR ARPT  FAIR      37  28  68 SW10      29.46F WCI  30
ASHLAND        NOT AVBL
HAYWARD        FAIR      36  24  62 S12       29.45F WCI  28
SIREN            N/A    N/A N/A N/A MISG        N/A
CUMBERLAND     FAIR      32  23  69 SE6       29.49F WCI  26
RICE LAKE      FAIR      35  26  70 SE10      29.50F WCI  27
CHETEK         FAIR      36  27  69 SE9       29.50F WCI  29
LADYSMITH      FAIR      33  25  73 S6        29.54F WCI  27
EAU CLAIRE     NOT AVBL
MENOMONIE      FAIR      37  26  65 SE3       29.53F
NEW RICHMOND   FAIR      37  26  64 S7        29.48F WCI  31
OSCEOLA        FAIR      38  27  63 S8        29.50F WCI  32
$$

WIZ003>005-009-010-017-018-192000-
NORTH CENTRAL WISCONSIN

CITY           SKY/WX    TMP DP  RH WIND       PRES   REMARKS
MANITOWISH WTR PTSUNNY   34  24  68 S10       29.48F WCI  26
ARBOR VITAE    FAIR      35  28  76 S9        29.49F WCI  28
WOODRUFF       FAIR      35  28  76 S9        29.49F WCI  28
RHINELANDER    FAIR      34  25  69 SW8       29.51F WCI  27
EAGLE RIVER    FAIR      35  24  64 SW7       29.48F WCI  29
LAND O LAKES   FAIR      35  26  68 SW7       29.49F WCI  29
PHILLIPS       FAIR      34  24  67 S6        29.49F WCI  29
TOMAHAWK       FAIR      33  24  70 CALM      29.54F
MEDFORD        FAIR      31  24  75 S9        29.55F WCI  23
MERRILL        FAIR      33  24  71 SW7       29.56F WCI  27
$$

WIZ029-030-035-036-043>047-192000-
CENTRAL WISCONSIN

CITY           SKY/WX    TMP DP  RH WIND       PRES   REMARKS
WAUSAU         FAIR      35  25  66 S6        29.56F WCI  30
MOSINEE        CLOUDY    34  27  75 S9        29.59F WCI  26
MARSHFIELD     FAIR      36  26  67 SW9       29.56F WCI  29
STEVENS POINT  FAIR      35  25  67 S8        29.61F WCI  28
WAUPACA        FAIR      39  25  58 S8        29.64F WCI  33
WAUTOMA        FAIR      38  24  57 SW12      29.64F WCI  30
WISC RAPIDS    FAIR      36  23  59 SW9       29.61F WCI  29
CAMP DOUGLAS   CLOUDY    37  27  65 S7        29.60F WCI  32
$$

WIZ011>013-019>022-031-037>040-048>050-192000-
NORTHEAST WISCONSIN

CITY           SKY/WX    TMP DP  RH WIND       PRES   REMARKS
ANTIGO         FAIR      32  25  74 SW10      29.56F WCI  24
SHAWANO        FAIR      37  26  62 SW7       29.61F WCI  32
OCONTO         FAIR      34  24  67 SW12      29.61F WCI  25
STURGEON BAY   FAIR      35  25  66 SW16      29.61F WCI  25
GREEN BAY      FAIR      34  25  69 SW13      29.63F WCI  25
MANITOWOC      FAIR      37  25  61 S9        29.65F WCI  30
APPLETON       PTSUNNY   34  21  60 SW14      29.62F WCI  24
CLINTONVILLE   FAIR      34  25  69 SW9       29.61F WCI  26
OSHKOSH        FAIR      35  26  69 S14       29.65F WCI  26
$$

WIZ032>034-041-042-053>061-192000-
SOUTHWEST WISCONSIN

CITY           SKY/WX    TMP DP  RH WIND       PRES   REMARKS
LA CROSSE      FAIR      37  27  67 S14       29.59F WCI  28
SPARTA         FAIR      37  27  65 S7        29.63F WCI  32
VIROQUA        FAIR      36  28  72 S13G18    29.63F WCI  28
BOSCOBEL       FAIR      41  26  55 SW12      29.68F
PRAIRIE DU CHI FAIR      39  24  53 S12G17    29.68F WCI  32
PLATTEVILLE    FAIR      37  28  68 SW16      29.72F WCI  28
$$

WIZ056-057-062-063-064-067-068-192000-
SOUTH CENTRAL WISCONSIN

CITY           SKY/WX    TMP DP  RH WIND       PRES   REMARKS
REEDSBURG      FAIR      36  26  65 SW10      29.66F WCI  28
BARABOO/DELLS  FAIR      36  24  60 SW15G23   29.65F WCI  27
LONE ROCK      FAIR      38  26  62 SW10G21   29.68F WCI  31
MINERAL POINT  FAIR      37  30  75 SW14      29.70F WCI  29
MADISON        CLOUDY    37  25  61 SW8G18    29.69F WCI  31
MIDDLETON      FAIR      39  25  56 SW14      29.69F WCI  31
WATERTOWN      FAIR      36  26  67 S13       29.70F WCI  27
MONROE         FAIR      36  27  69 SW14G21   29.72F WCI  27
JANESVILLE     SUNNY     37  27  65 SW16      29.73F WCI  28
$$

WIZ051-052-058>065-066-070>072-192000-
SOUTHEAST WISCONSIN

CITY           SKY/WX    TMP DP  RH WIND       PRES   REMARKS
MILWAUKEE      PTSUNNY   40  25  55 SW20G29   29.71F WCI  30
WAUKESHA       SUNNY     37  23  56 SW14G23   29.71F WCI  29
MILWAUKEE/TIMM SUNNY     39  21  48 SW15G25   29.71F WCI  31
RACINE         FAIR      38  24  57 SW17G26   29.74F WCI  28
BURLINGTON     FAIR      37  24  61 SW20      29.74F WCI  26
KENOSHA        FAIR      38  24  57 SW15G29   29.73F WCI  29
FOND DU LAC    FAIR      36  23  59 SW15G25   29.65F WCI  27
SHEBOYGAN      FAIR      38  27  64 S13       29.65F WCI  30
WEST BEND      FAIR      37  25  60 SW12G18   29.67F WCI  30
JUNEAU         FAIR      34  25  68 S15       29.69F WCI  24
$$

LSZ147-162-192000-
LAKE SUPERIOR

STATION/POSITION TIME  TEMP    WIND        PRES    WAVE
                       AIR SEA DIR/SP/G            HT/PER
                 (UTC) (F)     (DEG/KT/KT) (MB)    (FT/S)
DEVILS ISLAND    1800   35     240/ 14/ 17  997.0F
SAXON HARBOR     1840   45     210/  5/ 10  996.3F
$$

LMZ867-665-643>646-192000-
LAKE MICHIGAN

STATION/POSITION TIME  TEMP    WIND        PRES    WAVE
                       AIR SEA DIR/SP/G            HT/PER
                 (UTC) (F)     (DEG/KT/KT) (MB)    (FT/S)
NORTHPORT PIER   1840   33     170/ 12/ 26 1002.4F
KEWAUNEE LAKESHO 1830   33     180/  9/ 11 1003.2F
SHEBOYGAN LAKESH 1800   35     200/ 12/ 13 1006.2F
PORT WASHINGTON  1830   41     240/ 11/ 15 1006.8F
MILWAUKEE LAKESH 1830   37     230/ 21/ 23   N/A
KENOSHA   LAKESH 1800   38     220/ 14/ 21 1008.5
$$

TC  - TEMPERATURE IN CELSIUS
VSB - VISIBILITY IN STATUTE MILES
WCI - WIND CHILL INDEX
HX  - HEAT INDEX





USA.gov is the U.S. government's official web portal to all federal, state and local government web resources and services.